Tracking 28790 objects as of 19-Apr-2024
HD Live streaming from Space Station
objects crossing your sky now

ONEWEB-0208

Track ONEWEB-0208 now!
10-day predictions
ONEWEB-0208 is classified as:


NORAD ID: 48243
Int'l Code: 2021-031AK
Perigee: 1,211.3 km
Apogee: 1,214.6 km
Inclination: 87.9 °
Period: 109.5 minutes
Semi major axis: 7583 km
RCS: Unknown
Launch date: April 25, 2021
Source: United Kingdom (UK)
Launch site: VOSTOCHNY COSMODROME (VOSTO)
Your satellite tracking list
Your tracking list is empty




NASA's NSSDC Master Catalog

Two Line Element Set (TLE):
1 48243U 21031AK  24109.89465800 -.00000070  00000-0 -22383-3 0  9994
2 48243  87.8913  86.7597 0002134  92.8794 267.2579 13.14502270144619
Source of the keplerian elements: AFSPC